#timestamp,LO_Frequency,Hit 
1499968815.8,286046954.8,N
1499968835.6,286046953.4,N
1499968855.4,286046955.7,N
1499968875.3,286046955.5,N
1499968895.1,286046954.4,N
1499968896.0,286046954.4,N
1499968915.8,286046957.1,N
1499968935.7,286046957.8,N
1499968955.5,286046956.2,N
1499968975.3,286046957.5,N
1499968995.2,286046955.7,N
1499969015.9,286046954.2,N
1499969035.7,286046954.0,N
1499969055.6,286046953.6,N
1499969075.4,286046954.2,N
1499969095.2,286046954.1,N
1499969115.0,286046955.1,N
1499969116.0,286046955.1,N
1499969135.8,286046956.2,N
1499969155.6,286046956.3,N
1499969175.4,286046957.6,N
1499969195.3,286046955.7,N
1499969215.1,286046957.9,N
1499969235.8,286046955.9,N
1499969255.7,286046956.3,N
1499969275.5,286046956.1,N
1499969295.3,286046954.5,N
1499969315.2,286046954.6,N
1499969335.9,286046953.5,N
1499969355.7,286046955.1,N
1499969375.6,286046953.6,N
1499969395.4,286046957.7,N
1499969415.2,286046955.7,N
1499969435.1,286046957.5,N
1499969436.0,286046957.5,N
1499969455.8,286046959.2,N
1499969475.6,286046959.1,N
1499969495.5,286046957.4,N
1499969515.3,286046957.7,N
1499969535.1,286046955.2,N
1499969555.8,286046954.9,N
1499969575.7,286046958.7,N
1499969595.5,286046959.1,N
1499969615.3,286046958.7,N
1499969635.2,286046960.5,N
1499969655.0,286046960.1,N
1499969655.9,286046960.1,N
1499969675.7,286046959.8,N
1499969695.6,286046962.0,N
1499969715.4,286046958.2,N
1499969735.2,286046960.5,N
1499969755.1,286046958.3,N
1499969756.0,286046958.3,N
1499969775.8,286046956.6,N
1499969795.6,286046957.7,N
1499969815.5,286046957.8,N
1499969835.3,286046958.2,N
1499969855.1,286046962.1,N
1499969875.9,286046961.7,N
1499969895.7,286046960.0,N
1499969915.5,286046959.7,N
1499969935.4,286046959.4,N
1499969955.2,286046960.4,N
1499969975.0,286046961.8,N
1499969975.9,286046961.8,N
1499969995.8,286046964.3,N
1499970015.6,286046958.1,N
1499970035.4,286046959.0,N
1499970055.2,286046962.3,N
1499970075.1,286046963.9,N
1499970076.0,286046963.9,N
1499970095.8,286046962.1,N
1499970115.6,286046960.3,N
1499970135.5,286046964.4,N
1499970155.3,286046965.9,N
1499970175.1,286046964.0,N
1499970176.0,286046964.0,N
1499970195.8,286046961.5,N
1499970215.6,286046961.4,N
1499970235.5,286046963.1,N
1499970255.3,286046962.5,N
1499970275.1,286046959.8,N
1499970295.9,286046960.1,N
1499970315.7,286046961.6,N
1499970335.5,286046960.1,N
1499970355.4,286046962.3,N
1499970375.2,286046960.8,N
1499970395.0,286046960.0,N
1499970395.9,286046960.0,N
1499970415.8,286046962.4,N
1499970435.6,286046962.7,N
1499970455.4,286046962.4,N
1499970475.2,286046964.4,N
1499970495.1,286046961.4,N
1499970496.0,286046961.4,N
1499970515.8,286046963.5,N
1499970535.6,286046963.8,N
1499970555.5,286046961.5,N
1499970575.3,286046963.1,N
1499970595.1,286046965.8,N
1499970615.9,286046964.4,N
1499970635.7,286046961.4,N
1499970655.5,286046964.3,N
1499970675.4,286046963.8,N
1499970695.2,286046965.5,N
1499970715.0,286046965.9,N
1499970715.9,286046965.9,N
1499970735.8,286046964.6,N
1499970755.6,286046965.0,N
1499970775.4,286046965.4,N
1499970795.3,286046965.8,N
1499970815.1,286046965.5,N
1499970816.0,286046965.5,N
1499970835.8,286046963.5,N
1499970855.7,286046965.5,N
1499970875.5,286046964.7,N
1499970895.3,286046964.9,N
1499970915.1,286046967.5,N
1499970935.9,286046968.1,N
1499970955.7,286046968.7,N
1499970975.5,286046966.8,N
1499970995.4,286046967.4,N
1499971015.2,286046970.4,N
1499971035.0,286046970.8,N
1499971035.9,286046970.8,N
1499971055.8,286046968.1,N
1499971075.6,286046968.8,N
1499971095.4,286046970.4,N
1499971115.3,286046968.3,N
1499971135.1,286046966.1,N
1499971136.0,286046966.1,N
1499971155.8,286046967.0,N
1499971175.7,286046966.8,N
1499971195.5,286046966.7,N
1499971215.3,286046968.6,N
1499971235.2,286046968.2,N
1499971255.9,286046970.3,N
1499971275.7,286046970.0,N
1499971295.6,286046969.8,N
1499971315.4,286046972.2,N
1499971335.2,286046971.8,N
1499971355.0,286046973.4,N
1499971355.9,286046973.4,N
1499971375.8,286046973.4,N
1499971395.6,286046971.8,N
1499971415.4,286046970.2,N
1499971435.3,286046970.6,N
1499971455.1,286046972.3,N
1499971475.8,286046973.3,N
1499971495.7,286046975.1,N
1499971515.5,286046970.9,N
1499971535.3,286046971.1,N
1499971555.2,286046972.3,N
1499971575.9,286046970.0,N
1499971595.7,286046971.1,N
1499971615.6,286046972.2,N
1499971635.4,286046974.0,N
1499971655.2,286046973.4,N
1499971675.1,286046973.0,N
1499971676.0,286046973.0,N
1499971695.8,286046975.2,N
1499971715.6,286046977.0,N
1499971735.5,286046977.0,N
1499971755.3,286046976.9,N
1499971775.1,286046977.2,N
1499971795.8,286046975.6,N
1499971815.7,286046975.3,N
1499971835.5,286046978.8,N
1499971855.3,286046976.5,N
1499971875.2,286046975.7,N
1499971895.0,286046976.9,N
1499971895.9,286046976.9,N
1499971915.7,286046974.6,N
1499971935.6,286046978.4,N
1499971955.4,286046978.6,N
1499971975.2,286046979.2,N
1499971995.1,286046981.2,N
1499971996.0,286046981.2,N
1499972015.8,286046980.8,N
1499972035.6,286046980.8,N
1499972055.5,286046981.7,N
1499972075.3,286046983.2,N
1499972095.1,286046981.4,N
1499972115.9,286046980.3,N
1499972135.7,286046979.8,N
1499972155.5,286046981.9,N
1499972175.4,286046980.1,N
1499972195.2,286046979.4,N
1499972215.0,286046978.9,N
1499972215.9,286046978.9,N
1499972235.8,286046980.5,N
1499972255.6,286046979.5,N
1499972275.4,286046979.6,N
1499972295.3,286046981.8,N
1499972315.1,286046983.6,N
1499972316.0,286046983.6,N
1499972335.8,286046980.7,N
1499972355.7,286046983.0,N
1499972375.5,286046982.6,N
1499972395.3,286046986.5,N
